Flag for U.S.A. Weather past 2 weeks in Buffalo, New York, U.S.A.

Now
59 °F

Passing clouds.


Feels Like: 59 °F
Forecast: 59 / 75 °F
Wind: 5 mph from South

Location: Greater Buffalo International Airport

Current Time: Aug 29, 2015 at 2:39:02 AM

Latest Report: Aug 29, 2015 at 1:54 AM


Visibility: 10 mi

Pressure: 30.16 "Hg

Humidity: 87%

Dew point: 55 °F

Location of BuffaloLocation

Historic Weather in Buffalo — Graph

°F

Buffalo temperature yesterday

Maximum temperature yesterday: 74 °F (at 3:54 PM)
Minimum temperature yesterday: 55 °F (at 2:54 AM)
Average temperature yesterday: 64 °F

Past Weeks' High & Low Weather Summary

 TemperatureHumidityPressure
High89 °F (Aug 19, 5:54 PM)94% (Aug 15, 1:58 AM)30.22 "Hg (Aug 15, 1:58 AM)
Low55 °F (Aug 27, 2:54 AM)37% (Aug 22, 3:54 PM)29.77 "Hg (Aug 20, 7:54 AM)
Average70 °F70%30.02 "Hg
* Reported Aug 14 12:54 AM — Aug 29 12:54 AM, Buffalo, Weather by CustomWeather, © 2015

Note: Actual official high and low records may vary slightly from our data, if they occured in-between our weather recording intervals... More about our weather records

Advertising

Buffalo weather history for previous 24 hours

 ConditionsComfort  
Time TempWeatherWind HumidityBarometerVisibility
12:54 AM
Sat, Aug 29
60 °FPassing clouds.5 mph83%30.17 "Hg10 mi
11:54 PM
Fri, Aug 28
60 °FPassing clouds.6 mph83%30.17 "Hg10 mi
10:54 PM62 °FMostly cloudy.6 mph78%30.17 "Hg10 mi
9:54 PM64 °FPartly cloudy.6 mph73%30.18 "Hg10 mi
8:54 PM65 °FBroken clouds.5 mph70%30.18 "Hg10 mi
7:54 PM67 °FBroken clouds.5 mph63%30.17 "Hg10 mi
6:54 PM70 °FPassing clouds.7 mph53%30.17 "Hg10 mi
5:54 PM72 °FPassing clouds.10 mph52%30.16 "Hg10 mi
4:54 PM73 °FScattered clouds.9 mph48%30.16 "Hg10 mi
3:54 PM74 °FScattered clouds.6 mph45%30.17 "Hg10 mi
2:54 PM73 °FScattered clouds.9 mph51%30.19 "Hg10 mi
1:54 PM72 °FPassing clouds.12 mph53%30.19 "Hg10 mi
12:54 PM71 °FPartly sunny.10 mph59%30.20 "Hg10 mi
11:54 AM69 °FBroken clouds.7 mph61%30.21 "Hg10 mi
10:54 AM69 °FScattered clouds.3 mph63%30.21 "Hg10 mi
9:54 AM65 °FPassing clouds.6 mph73%30.21 "Hg10 mi
8:54 AM61 °FPassing clouds.5 mph81%30.22 "Hg10 mi
7:54 AM57 °FBroken clouds.No wind90%30.22 "Hg10 mi
6:54 AM56 °FPassing clouds.3 mph90%30.20 "Hg10 mi
5:54 AM56 °FPassing clouds.3 mph87%30.18 "Hg10 mi
4:54 AM55 °FPassing clouds.5 mph90%30.16 "Hg10 mi
3:54 AM55 °FPassing clouds.5 mph90%30.16 "Hg10 mi
2:54 AM55 °FPassing clouds.3 mph90%30.16 "Hg10 mi
Weather by CustomWeather, © 2015

See weather overviewHow to use our weather pages